Theta_e
351 345 345 348 348 343 338 334 339 344 345 344 344 341 337 330 326 321 319 324 325 324 325 329 333 333 331 335 335 330 323 323 324 324 325 326 323 323 323 323 324 337 324
352 344 345 347 345 340 335 335 339 343 344 344 343 341 335 328 326 319 322 325 329 334 334 329 329 329 331 331 330 324 323 324 325 326 325 324 323 323 323 323 325 328 324
355 343 346 344 342 338 334 335 339 341 342 343 341 337 331 327 326 321 325 327 332 334 334 333 333 331 329 326 324 323 329 331 329 328 335 343 341 326 325 324 323 323 323
352 340 342 343 341 337 333 334 336 338 338 336 334 331 328 327 324 324 327 328 330 332 333 331 327 325 324 323 324 327 334 335 337 335 341 340 339 327 326 326 326 325 325
350 340 341 342 341 334 332 331 331 330 329 328 327 326 326 326 324 327 327 326 327 328 325 323 322 322 322 322 328 336 339 340 340 344 346 345 343 338 329 329 328 327 326
351 344 340 341 339 334 332 330 330 329 327 324 323 325 324 326 323 327 324 323 323 325 324 325 324 323 323 324 332 339 341 341 340 344 344 344 342 340 332 331 331 330 330
353 352 341 341 338 334 333 332 333 331 327 323 322 323 326 325 324 327 325 322 323 324 326 325 325 325 326 330 339 341 341 340 344 344 342 343 346 337 335 332 329 328 327
352 353 341 341 337 335 333 335 335 334 330 324 321 323 323 323 324 327 325 323 322 325 325 325 326 327 334 338 340 342 340 340 342 343 342 340 338 337 337 338 336 332 329
352 352 344 340 336 334 334 336 337 337 334 327 322 322 321 322 323 327 326 324 323 324 326 326 327 334 337 338 339 341 340 339 339 341 338 338 336 330 334 334 336 337 335
352 351 350 346 336 333 334 336 338 338 337 332 325 322 321 321 322 325 325 325 324 324 326 328 329 329 333 334 336 339 338 334 334 336 335 333 332 336 327 324 331 333 333
352 351 350 348 344 342 340 335 336 337 338 336 329 324 322 322 321 322 323 325 326 324 324 325 328 330 330 330 330 330 330 333 333 331 330 328 323 324 325 323 331 329 329
353 351 350 351 347 344 343 340 335 336 337 337 334 329 325 337 330 335 333 325 328 329 326 323 323 325 326 334 333 326 326 331 331 330 330 327 326 330 328 325 331 330 332
353 353 352 353 350 346 345 345 343 344 343 341 340 336 339 341 339 338 340 328 329 330 332 330 323 321 330 332 332 332 331 332 331 332 331 325 328 333 332 331 332 332 333
354 353 352 353 351 348 347 347 346 346 346 346 346 340 344 341 342 341 340 339 340 339 339 340 338 336 336 334 333 332 333 333 334 336 336 331 334 335 335 335 335 336 337
354 353 353 352 351 348 349 349 348 348 348 347 347 345 346 345 345 343 342 341 341 340 340 341 339 337 337 336 336 336 336 336 338 341 342 339 339 337 336 337 337 338 338
355 354 354 350 348 345 349 352 351 350 349 349 347 347 345 346 347 345 345 343 341 340 339 339 338 338 338 337 339 341 340 338 339 339 339 339 337 331 331 331 333 335 333
356 355 355 348 343 342 344 349 350 351 351 349 348 348 347 346 348 347 346 344 341 338 338 338 339 340 340 341 343 344 342 338 337 339 336 337 336 332 331 331 331 332 328
356 355 355 352 343 342 343 343 346 351 351 350 348 348 349 347 346 343 345 344 342 342 341 340 340 341 343 344 344 344 342 342 340 335 334 332 332 332 333 332 331 332 329
358 357 355 348 343 341 342 344 343 346 349 350 349 348 348 347 344 344 346 345 342 342 340 340 343 343 344 343 341 340 338 339 339 336 336 334 334 335 334 334 326 324 320
356 358 356 350 346 345 342 344 346 347 347 348 350 349 346 345 344 344 346 346 340 341 342 342 341 343 335 334 335 334 333 335 332 335 336 336 336 335 332 332 328 319 315
353 356 357 354 350 350 349 350 349 347 346 345 348 347 345 341 341 339 339 343 339 341 342 337 335 334 335 336 335 337 338 337 337 334 333 335 336 332 328 326 316 323 323
345 351 354 354 351 348 350 351 349 349 346 347 346 341 339 339 342 339 341 342 339 339 337 328 326 332 333 339 338 335 333 332 334 327 324 325 325 325 324 325 327 324 320
340 336 348 352 346 348 347 346 347 345 346 345 341 339 339 338 337 337 339 338 339 336 333 332 332 335 339 339 339 336 334 332 331 328 330 328 329 327 326 326 326 326 327
334 339 347 351 346 346 344 344 345 347 346 345 343 340 338 337 337 336 337 338 335 331 331 334 336 337 339 337 337 338 338 336 333 328 325 326 326 325 324 324 324 323 323
329 338 346 349 345 342 344 345 344 346 345 345 344 341 338 338 338 338 337 339 338 334 337 335 339 334 336 338 336 336 336 335 332 331 327 324 323 322 321 321 322 324 323
331 340 347 347 343 342 342 342 343 342 343 342 342 341 341 337 338 337 336 335 334 335 333 334 330 334 336 337 336 334 332 328 325 324 324 323 321 320 320 321 321 322 321
Wind_Speed
21 26 27 24 21 19 18 17 20 22 21 19 16 13 11 11 12 13 16 18 17 17 16 16 15 13 9 9 8 8 8 8 9 9 8 7 8 8 9 8 9 5 6
25 27 26 23 22 20 19 18 22 23 21 18 16 13 11 11 13 15 17 17 15 14 14 14 14 12 9 8 8 8 9 9 10 10 9 10 8 7 7 7 8 5 5
25 27 26 24 24 21 20 19 22 21 20 18 15 13 12 13 15 17 17 16 14 14 14 13 13 11 9 10 10 10 11 11 11 10 12 6 3 6 6 6 6 5 4
26 28 27 26 24 22 21 20 20 19 18 16 15 13 13 14 16 17 15 14 14 14 14 13 12 12 12 12 12 13 11 10 10 9 9 4 4 5 6 6 6 5 5
26 29 29 27 24 23 22 20 19 17 16 15 15 14 15 16 17 16 14 14 13 13 13 13 13 13 14 14 15 12 10 9 8 10 2 1 3 0 4 5 5 5 5
27 28 29 28 26 24 22 21 18 15 14 15 15 15 16 17 18 16 14 13 13 13 13 13 13 14 15 16 14 11 8 7 7 2 1 1 3 5 2 3 4 3 3
26 25 30 29 27 25 24 21 18 15 13 13 15 16 16 17 18 16 14 13 13 13 13 12 13 14 15 14 12 9 7 6 6 2 1 1 2 3 2 0 1 1 1
24 25 31 30 28 26 25 23 19 16 14 13 14 15 15 16 17 15 13 13 13 12 12 12 13 14 14 13 11 9 8 6 0 3 2 0 4 4 5 7 6 4 2
22 23 30 31 29 26 25 23 20 17 15 13 13 15 15 15 16 14 13 13 13 13 12 12 12 14 13 12 12 10 8 7 4 6 4 3 9 6 8 7 9 9 8
22 22 24 26 30 29 27 24 21 18 16 13 13 13 14 15 16 15 13 13 13 13 13 13 14 14 15 14 13 12 11 10 7 8 8 8 11 12 12 12 10 9 10
23 23 24 24 25 24 24 26 23 20 17 15 14 14 15 16 16 16 15 14 13 13 14 15 16 16 16 15 14 14 13 9 11 10 10 14 13 13 13 13 12 11 11
26 25 25 24 24 24 21 24 25 23 21 19 18 17 16 14 15 15 15 15 15 16 16 16 18 17 17 12 13 17 15 13 12 12 11 16 13 12 11 12 13 12 12
26 26 25 25 25 25 22 21 21 20 19 19 19 19 16 14 14 15 13 18 18 19 17 18 18 18 13 13 14 13 13 13 11 13 13 16 15 13 11 11 13 15 16
28 27 27 26 27 26 22 22 21 19 19 18 19 21 18 16 15 15 13 13 15 14 14 14 13 13 16 15 15 14 14 13 13 12 13 16 14 14 14 15 15 17 18
28 28 27 26 28 28 24 21 21 20 20 18 19 21 19 17 16 15 14 13 14 14 15 15 15 15 15 15 15 15 15 14 13 11 12 15 12 12 15 15 16 16 16
27 27 26 28 29 31 27 21 20 19 18 18 18 19 22 18 16 15 14 14 13 14 13 15 15 15 15 15 16 16 15 14 14 14 12 13 17 16 16 16 17 14 13
27 24 26 27 30 31 31 27 20 19 18 17 18 19 19 20 18 16 14 14 14 16 15 15 14 14 15 15 14 14 14 17 18 16 17 15 18 25 25 20 18 21 16
24 25 24 24 26 29 32 31 25 19 16 17 17 17 19 19 18 17 15 14 14 14 12 13 13 14 14 12 13 13 14 16 18 24 27 27 31 28 23 19 17 22 23
23 23 24 26 26 28 32 29 28 23 17 16 17 18 19 20 18 18 16 16 21 15 15 14 13 15 13 12 15 20 24 23 26 31 29 32 24 20 19 19 13 17 20
22 22 22 26 27 28 30 29 25 19 16 18 16 15 16 15 16 18 17 18 20 15 14 14 14 15 15 18 22 20 20 20 18 15 15 14 14 10 11 15 19 16 20
20 22 22 23 25 27 28 26 22 19 17 14 11 13 13 13 15 18 20 18 19 17 16 14 15 18 22 21 21 17 16 15 12 9 11 7 8 11 12 14 15 13 15
20 21 23 23 27 27 25 23 20 17 13 11 12 14 15 16 16 19 18 17 20 19 15 12 14 22 23 13 12 14 14 8 8 7 8 9 9 9 11 13 14 19 23
21 23 23 23 25 25 20 23 21 13 11 11 17 16 12 14 17 17 18 19 20 17 20 18 20 22 13 11 13 12 12 11 9 12 9 9 11 11 14 16 17 19 20
21 20 19 20 25 23 26 22 16 12 10 10 10 11 12 12 13 17 20 21 18 19 16 19 16 13 11 13 13 13 14 14 15 16 16 16 18 18 19 21 20 21 21
20 18 18 19 24 23 21 15 12 11 7 4 6 8 12 14 14 16 16 19 20 20 15 12 13 14 11 14 13 14 15 15 16 18 24 25 23 23 24 23 26 24 24
19 18 18 23 22 19 15 14 13 9 7 6 4 5 9 13 14 13 13 15 15 13 13 12 16 15 13 13 12 12 14 16 19 21 25 27 30 33 29 27 27 26 27
Wind_Direction
162 168 169 173 172 171 169 168 173 175 172 168 162 154 147 142 147 155 153 152 153 155 161 168 165 159 149 151 144 133 123 120 117 111 108 106 102 100 101 102 103 85 96
163 172 173 176 172 171 169 169 171 173 172 170 167 164 157 152 156 158 157 159 158 160 163 167 170 167 165 156 148 135 127 122 117 111 110 99 96 96 102 102 105 132 100
164 174 176 178 173 172 170 167 169 171 173 173 173 171 165 161 162 161 162 165 163 161 162 164 169 173 170 162 150 141 129 120 111 103 98 87 82 84 98 103 106 109 104
169 174 178 179 175 174 170 167 169 173 176 178 179 177 174 169 166 164 166 169 169 169 171 175 179 177 171 162 150 142 133 122 113 106 66 115 102 80 87 91 98 106 104
170 174 179 178 177 177 173 170 170 173 178 183 185 184 178 174 171 168 170 172 173 174 173 174 174 173 168 160 152 149 146 138 126 87 147 119 132 258 89 93 97 98 96
170 175 178 177 179 178 176 173 172 176 181 184 185 185 181 177 174 173 174 174 175 174 172 171 173 171 167 162 161 161 156 144 120 149 149 256 174 224 123 111 93 76 86
168 172 178 179 180 181 178 175 177 180 179 182 185 186 182 181 178 177 177 176 176 175 173 172 173 172 168 167 172 172 169 158 113 215 126 112 248 261 266 236 121 115 48
171 174 180 180 183 183 181 181 182 181 179 179 183 186 186 185 183 183 182 181 180 179 176 176 177 176 175 178 185 195 195 192 234 255 272 269 256 253 275 286 290 296 308
175 173 180 181 185 186 185 187 187 186 183 181 181 184 186 189 190 191 189 188 186 185 187 187 187 187 189 199 208 215 225 232 250 269 262 260 257 269 274 277 270 275 285
178 177 177 180 186 188 188 191 192 191 188 184 183 184 187 190 196 200 201 198 196 198 198 201 203 204 210 217 225 234 246 262 259 263 269 255 280 280 286 282 270 270 281
182 183 182 184 184 182 189 193 194 196 195 191 188 188 189 193 199 206 208 208 208 209 211 215 219 220 224 230 236 244 253 251 256 265 262 269 279 281 284 273 260 263 267
184 186 186 185 185 183 189 195 196 198 198 196 195 193 193 193 201 206 214 213 215 217 221 227 231 234 237 238 251 248 253 240 250 256 261 267 275 280 286 265 255 260 267
186 186 188 188 185 186 190 194 192 196 197 198 199 202 194 201 205 205 215 216 220 224 229 233 234 237 241 238 242 247 248 252 258 260 254 263 262 260 262 261 264 267 267
191 189 190 192 192 189 192 195 196 198 200 200 203 209 202 205 210 206 212 217 218 229 226 235 236 229 233 239 241 246 254 250 257 257 259 261 258 263 263 267 270 273 275
195 194 196 194 198 198 192 199 198 200 205 205 208 212 207 208 213 213 217 216 224 225 235 232 237 245 249 247 248 253 251 252 248 245 242 262 270 282 282 278 276 269 270
198 197 196 199 202 203 201 202 203 205 212 206 211 214 214 213 222 220 222 226 230 233 234 239 244 245 253 252 257 253 250 248 250 248 256 262 258 275 291 283 276 264 270
200 196 200 204 211 210 209 212 205 215 211 215 214 215 218 219 225 216 228 232 233 241 240 243 241 247 245 249 249 252 255 260 254 257 265 272 282 286 282 275 271 274 275
198 200 200 203 213 213 216 222 217 214 218 220 219 223 220 219 218 231 231 236 240 238 242 242 244 244 243 244 254 258 269 265 263 267 279 284 294 284 273 260 269 263 264
203 201 204 207 216 216 218 220 224 219 214 220 219 217 228 223 228 234 235 238 239 240 244 244 241 238 241 251 255 265 271 275 276 277 278 283 289 279 268 247 264 269 261
204 204 205 207 212 216 218 218 226 223 215 219 216 219 226 227 232 238 238 236 245 239 244 237 241 237 257 269 279 280 274 274 283 284 277 278 262 257 271 260 270 274 270
199 200 200 205 214 217 217 215 220 217 219 215 211 218 227 232 240 240 234 242 242 234 238 256 265 264 275 274 287 294 287 270 254 256 259 265 258 275 265 273 279 275 286
200 199 201 205 212 216 215 212 214 202 205 209 215 226 241 249 245 252 244 239 245 245 237 228 240 268 278 263 269 277 279 266 262 261 245 253 260 270 283 288 283 289 288
203 208 203 197 214 210 212 214 215 198 199 211 236 238 252 250 251 243 233 246 247 236 235 243 259 264 256 262 258 257 285 279 301 295 272 274 272 290 287 287 289 286 285
207 206 199 195 214 204 213 213 199 195 204 225 237 238 244 235 244 248 245 237 234 240 245 266 259 236 247 256 259 267 262 273 286 287 274 276 285 292 295 297 290 287 289
207 197 191 188 209 208 208 203 200 194 207 210 213 223 227 244 238 241 239 235 240 255 258 245 237 246 248 252 261 267 273 275 278 280 288 289 286 289 292 290 287 284 294
194 187 183 202 200 203 204 201 192 196 177 179 214 223 235 237 238 236 226 229 240 242 249 250 247 245 241 242 252 262 271 279 282 283 284 285 289 293 292 289 287 289 291